Location: Korczew
(51.3586°N, 19.4491°E)
Time: 21:56:26
(UTC+00:00)

Okean-O - Pass Details

Date: 19 May 2025
Orbit: 628 x 631 km, 98.0° (Epoch: 16 June)

Event Time Altitude Azimuth Distance (km) Brightness Sun altitude
Exits shadow 20:03:38 - 193° (SSW) 2,622 5.4 -11.0°
Reaches altitude 10° 20:05:16 10° 201° (SSW) 2,010 4.9 -11.2°
Maximum altitude 20:09:11 31° 265° (W) 1,108 4.2 -11.5°
Drops below altitude 10° 20:13:07 10° 328° (NNW) 2,024 6.8 -11.9°
Sets 20:15:32 0° 339° (NNW) 2,937 7.8 -12.1°
